Location: Omaha
(41.2590°N, 95.9380°W)
Time: 01:13:24
(UTC-05:00)

Envisat - Pass Details

Date: 13 October 2017
Orbit: 764 x 766 km, 98.2° (Epoch: 23 October)

Event Time Altitude Azimuth Distance (km) Brightness Sun altitude
Exits shadow 21:37:12 43° 307° (NW) 1,072 4.0 -32.7°
Drops below altitude 10° 21:40:55 10° 338° (NNW) 2,310 5.9 -33.3°
Sets 21:43:17 0° 343° (NNW) 3,240 6.7 -33.8°
